Home   Weather   Constanța   Past weeks

Flag for Romania Past Weather in Constanța, Romania — Yesterday and Last 2 Weeks

Now
27 °F

Passing clouds.


Feels Like: 16 °F
Forecast: 18 / 28 °F
Wind: 12 mph from North

Location: Constanta

Current Time: Jan 20, 2017 at 3:55:30 am

Latest Report: Jan 20, 2017 at 3:00 am


Visibility: 6 mi

Pressure: 30.60 "Hg

Humidity: 85%

Dew Point: 23 °F

Location of ConstanțaLocation

Past Weather in Constanța — Graph

°F

Constanța Temperature Yesterday

Maximum temperature yesterday: 27 °F (at 2:00 pm)
Minimum temperature yesterday: 25 °F (at 2:00 am)
Average temperature yesterday: 26 °F

High & Low Weather Summary for the Past Weeks

 TemperatureHumidityPressure
High45 °F (Jan 14, 2:00 pm)100% (Jan 6, 5:00 am)30.62 "Hg (Jan 6, 5:00 am)
Low4 °F (Jan 10, 12:00 am)56% (Jan 13, 11:00 am)29.58 "Hg (Jan 14, 7:00 am)
Average26 °F87%30.07 "Hg
* Reported Jan 5 2:00 am — Jan 20 2:00 am, Constanța, Weather by CustomWeather, © 2017

Note: Actual official high and low records may vary slightly from our data, if they occured in-between our weather recording intervals... More about our weather records

Advertising

Constanța Weather History for the Previous 24 Hours

Scroll right to see more
 ConditionsComfort  
Time TempWeatherWind HumidityBarometerVisibility
2:00 am
Fri, Jan 20
28 °FPassing clouds.12 mph82%30.59 "Hg6 mi
1:00 am28 °FPassing clouds.12 mph82%30.59 "Hg6 mi
12:00 am28 °FPassing clouds.N/A81%30.60 "Hg6 mi
11:00 pm
Thu, Jan 19
27 °FOvercast.12 mph83%30.61 "Hg6 mi
10:00 pm27 °FOvercast.12 mph83%30.60 "Hg6 mi
9:00 pm26 °FOvercast.12 mph83%30.60 "Hg6 mi
8:00 pm26 °FOvercast.12 mph85%30.60 "Hg6 mi
7:00 pm26 °FOvercast.14 mph86%30.58 "Hg6 mi
6:00 pm26 °FOvercast.14 mph87%30.59 "Hg6 mi
5:00 pm26 °FOvercast.14 mph87%30.57 "Hg6 mi
4:00 pm27 °FOvercast.14 mph87%30.58 "Hg6 mi
3:00 pm27 °FOvercast.12 mph88%30.57 "Hg6 mi
2:00 pm27 °FFog.12 mph90%30.58 "Hg2 mi
1:00 pm27 °FOvercast.13 mph91%30.58 "Hg2 mi
12:00 pm26 °FLight snow. Overcast.14 mph92%30.60 "Hg2 mi
11:00 am25 °FFog.12 mph93%30.62 "Hg2 mi
10:00 am25 °FOvercast.14 mph93%30.61 "Hg2 mi
9:00 am25 °FOvercast.14 mph94%30.60 "Hg6 mi
8:00 am25 °FOvercast.13 mph96%30.58 "Hg6 mi
7:00 am25 °FOvercast.15 mph96%30.58 "Hg1 mi
6:00 am25 °FLight snow. Overcast.16 mph97%30.58 "Hg1 mi
5:00 am25 °FLight snow. Overcast.16 mph96%30.56 "Hg1 mi
4:00 am25 °FLight snow. Overcast.15 mph96%30.56 "Hg2 mi
3:00 am25 °FLight snow. Overcast.15 mph96%30.56 "Hg2 mi
Weather by CustomWeather, © 2017

See weather overviewHow to use our weather pages